Theta_e
303 303 305 303 303 302 300 298 297 298 299 299 299 300 301 301 302 303 303 302 300 300 301 299 300 303 305 306 308 309 306 306 304 306 307 309 310 314 315 314 313 314 315 317 317 318 319 312 310 322 322 321 323 321
303 304 303 302 301 299 296 297 296 297 297 299 299 300 300 301 301 303 304 302 301 301 301 301 300 301 303 304 306 308 308 306 307 307 306 309 311 312 313 316 310 313 312 314 313 314 308 306 309 315 319 320 320 320
303 302 302 301 298 295 297 298 297 296 297 298 298 300 301 301 301 302 303 303 301 300 300 300 302 304 305 304 304 307 304 304 306 306 307 309 309 310 313 313 311 311 311 312 314 308 307 313 317 318 318 319 319 320
302 301 300 296 295 296 297 297 296 297 297 297 298 299 300 301 300 301 303 302 300 300 302 302 305 305 306 306 306 307 304 304 302 305 308 309 310 310 313 312 314 313 313 315 311 311 312 316 316 317 317 318 318 317
300 297 294 294 295 295 296 296 296 296 297 298 298 299 300 300 300 300 301 301 301 301 305 304 304 306 306 307 307 306 305 305 305 306 309 310 309 314 311 311 313 313 315 316 314 314 316 316 316 317 315 315 315 315
294 294 294 295 295 296 296 296 295 296 296 297 297 298 299 299 300 301 302 304 301 300 303 307 302 304 306 307 307 305 305 306 307 308 308 305 307 312 310 311 312 311 312 311 313 313 314 314 314 315 315 313 313 313
292 294 294 294 295 295 295 296 296 296 296 296 297 299 300 300 300 302 302 304 302 300 305 307 302 303 307 308 307 306 307 309 309 311 310 307 308 309 308 311 312 311 311 310 311 312 313 312 313 312 313 311 311 311
293 293 293 294 294 294 294 295 295 295 294 297 299 302 303 303 302 301 304 304 303 304 307 307 305 304 308 310 310 305 310 310 312 313 307 308 307 306 309 310 311 310 309 309 309 309 310 309 309 310 310 310 310 310
292 293 293 293 294 293 293 294 296 296 297 298 301 305 304 304 303 307 308 308 305 307 308 308 305 302 306 310 309 307 308 313 307 312 308 307 306 307 309 310 310 309 309 308 309 308 308 309 309 308 308 309 309 309
292 292 293 293 293 293 295 296 297 296 295 298 303 306 309 303 304 307 307 307 307 307 308 308 303 305 306 308 310 309 308 311 313 308 307 303 305 308 308 309 307 308 308 307 308 309 309 309 308 307 308 309 308 307
292 292 292 292 293 294 296 297 295 295 295 295 295 301 300 302 305 308 310 309 307 309 306 306 303 304 304 308 308 307 303 305 307 310 310 307 307 310 309 310 308 308 308 307 308 308 308 308 307 307 308 307 306 305
291 292 292 292 293 295 295 294 294 293 294 293 294 295 299 302 305 309 309 311 310 309 306 306 307 305 304 306 306 304 305 303 311 307 310 307 308 309 309 310 308 306 306 308 308 308 307 307 307 306 306 305 305 305
291 291 292 292 293 294 294 293 293 292 292 297 300 302 304 305 307 309 307 308 313 313 313 313 314 310 308 306 305 302 307 305 304 302 310 308 309 309 309 309 307 305 306 308 308 308 307 307 307 306 305 305 305 304
291 291 292 293 294 294 294 294 294 293 294 300 304 306 305 303 304 305 306 308 311 312 312 312 310 313 308 308 307 310 307 304 303 306 306 308 309 308 309 309 307 306 306 307 307 306 306 306 305 305 305 306 305 303
291 291 292 293 294 293 291 292 293 293 295 298 302 304 304 303 302 304 307 308 309 307 308 310 310 311 309 311 309 307 311 306 305 304 301 307 310 313 312 311 309 307 306 305 305 304 306 306 305 304 305 305 304 303
291 291 294 294 291 290 292 293 293 294 296 297 298 303 302 302 302 302 302 302 303 303 303 309 311 312 311 310 310 311 305 304 304 302 304 307 309 309 311 311 310 308 306 305 306 306 306 306 305 304 305 304 303 301
292 291 290 291 291 292 293 294 295 296 297 299 300 302 302 301 302 302 301 300 298 300 306 309 312 313 311 310 309 305 305 304 303 304 305 307 308 307 308 309 310 309 306 305 306 306 306 306 305 304 303 303 302 300
291 291 291 291 293 293 294 295 297 299 300 299 299 299 298 299 299 299 298 298 300 302 307 310 311 314 313 311 308 309 306 305 304 306 306 307 307 307 308 308 310 309 306 306 306 306 306 306 304 303 303 303 302 300
291 292 291 291 293 294 293 294 297 298 298 297 296 296 296 297 297 298 299 300 299 300 303 308 310 313 311 308 307 307 307 308 308 308 307 307 307 308 310 309 310 309 307 307 306 305 305 305 305 304 303 302 301 300
291 290 291 292 291 294 294 294 295 296 297 298 296 297 296 295 296 297 297 298 299 301 305 308 307 308 311 309 309 310 310 309 307 308 309 307 307 309 308 307 307 308 307 306 306 306 304 303 305 304 303 301 301 299
291 291 291 291 291 291 292 293 294 294 295 296 297 295 295 294 295 294 294 296 298 299 302 303 303 302 303 307 308 309 309 307 307 308 308 308 306 308 308 308 308 307 306 305 305 304 303 303 303 303 302 301 300 299
291 291 291 292 292 293 291 292 292 293 294 294 295 294 294 294 296 296 296 297 298 298 299 300 303 304 305 305 304 306 308 308 307 307 307 307 307 307 307 308 306 306 306 306 305 304 303 303 303 302 301 300 299 298
292 293 292 292 293 291 289 292 293 294 296 296 294 296 296 295 297 297 298 297 300 301 301 302 302 303 303 304 307 307 307 307 306 306 306 308 308 310 309 309 308 307 306 306 306 305 303 303 303 301 300 299 299 298
292 293 291 292 293 291 292 292 292 294 294 295 292 295 295 296 296 298 300 302 302 301 301 301 302 303 303 304 305 306 307 307 306 307 308 308 307 307 308 308 309 309 308 307 305 303 303 302 301 300 299 298 298 297
293 287 291 291 291 294 294 294 295 294 293 293 294 295 299 299 298 300 302 301 300 301 300 300 300 302 303 304 304 304 305 305 305 306 307 308 308 308 308 309 308 309 308 305 303 303 302 301 301 300 299 298 297 296
290 288 289 293 293 294 294 294 291 289 292 293 294 296 298 299 301 302 301 300 299 300 301 299 299 301 303 305 305 306 305 305 305 305 306 307 308 308 308 307 305 305 307 306 304 303 302 302 301 299 298 298 297 295
289 289 291 293 293 293 293 292 290 289 293 295 296 297 297 298 301 300 298 294 296 296 298 299 298 299 301 300 300 300 300 301 303 307 308 308 309 309 309 308 307 306 307 306 304 303 302 301 299 299 298 298 297 296
292 292 293 292 294 293 294 293 292 292 293 295 296 297 298 299 295 293 294 291 292 293 295 296 296 296 298 299 298 298 299 300 304 305 306 304 306 307 308 308 307 306 306 305 305 305 302 300 299 298 298 297 296 295
292 291 293 294 294 294 294 294 293 292 292 293 296 297 298 292 290 291 290 290 291 292 293 294 294 294 294 295 297 297 296 297 301 304 304 304 303 302 302 306 306 305 306 305 304 303 301 300 300 299 298 297 296 295
291 291 294 295 295 296 295 292 291 290 291 292 293 295 293 291 289 288 289 289 290 291 292 293 293 293 293 293 293 293 295 292 292 296 303 303 302 301 300 300 301 302 302 302 301 299 298 299 297 296 295 294 293 293
291 294 296 295 296 296 296 293 292 292 291 293 295 295 294 291 289 288 288 288 290 291 290 291 291 290 291 291 291 290 290 290 291 294 297 298 299 300 298 298 299 299 301 301 300 298 296 295 294 293 292 292 292 291
295 296 297 298 297 295 296 295 293 294 295 294 293 296 294 291 289 288 287 287 288 290 289 289 288 288 288 288 288 289 289 288 288 291 294 296 296 296 297 298 298 298 298 297 296 295 294 292 291 291 291 290 290 290
291 294 295 295 295 296 297 296 295 295 293 291 290 291 290 287 286 287 286 285 286 286 286 287 287 286 286 287 287 287 287 288 290 291 292 294 295 295 294 294 294 295 295 293 292 291 291 291 290 289 289 288 287 286
Wind_Speed
24 25 26 24 24 25 26 25 24 23 22 21 21 20 18 16 13 11 9 10 7 3 10 9 6 5 4 3 2 6 6 3 4 5 3 3 3 3 4 3 4 2 2 3 4 4 6 4 15 5 5 7 7 8
26 25 24 23 27 27 26 24 24 23 23 22 22 21 18 16 15 14 8 10 10 6 8 25 30 33 26 26 6 3 2 2 2 3 3 3 3 3 6 3 1 1 2 2 2 2 6 15 15 12 4 6 9 9
24 22 24 26 27 26 25 25 25 24 23 22 21 21 18 17 16 14 16 12 6 3 7 3 7 5 9 21 26 3 2 3 1 1 2 2 4 1 3 3 4 2 4 1 3 3 8 13 9 10 14 15 12 10
23 24 25 25 24 25 25 25 25 24 24 24 22 21 20 19 18 17 18 11 7 4 4 6 6 14 18 14 22 29 3 4 3 1 2 3 3 3 2 3 3 2 7 6 2 5 10 11 13 17 15 14 15 14
22 23 23 23 23 24 24 24 26 26 25 24 23 22 21 20 19 20 25 22 22 6 3 6 18 7 11 8 17 18 8 3 1 1 3 3 3 2 1 2 3 3 3 3 2 9 5 7 13 13 14 10 8 11
21 21 22 22 22 22 24 25 27 28 27 25 25 24 23 20 15 10 3 0 16 21 2 4 5 5 6 7 13 10 5 2 1 2 3 3 4 1 1 2 5 5 5 2 3 6 5 7 10 8 9 12 13 12
19 19 20 21 22 23 24 26 27 29 30 30 27 26 22 16 10 6 3 3 12 17 3 3 5 4 1 4 2 2 3 2 2 2 2 3 3 2 1 1 5 8 7 8 9 5 6 10 3 4 9 11 14 13
17 18 19 21 22 23 25 27 29 30 29 30 29 23 21 13 8 10 12 18 20 6 3 2 4 5 5 3 2 3 3 2 3 2 2 3 3 1 1 5 5 6 8 6 6 6 3 4 7 10 11 13 17 14
16 17 20 21 22 24 26 27 27 27 31 29 23 10 3 3 4 4 9 4 25 7 2 2 2 4 3 1 1 1 2 2 1 2 3 2 1 2 5 3 4 4 2 5 4 7 8 9 10 8 9 13 14 14
16 18 20 21 22 24 24 23 23 28 29 19 7 3 1 2 8 4 1 1 2 2 2 4 2 3 1 1 2 1 1 2 2 4 1 1 3 4 4 6 4 5 5 3 6 6 6 6 7 8 10 9 13 14
16 18 19 20 22 20 18 19 23 30 14 10 7 3 10 15 1 2 2 3 2 3 3 4 7 4 2 3 3 1 2 1 1 3 1 3 3 4 3 5 3 6 2 6 5 3 4 5 5 7 10 11 13 14
16 17 19 20 19 15 17 20 26 28 17 15 17 12 6 3 2 3 3 4 4 4 3 3 4 5 3 2 2 1 2 2 3 2 1 2 4 4 4 4 2 2 7 6 3 4 4 5 5 6 8 10 14 17
17 18 19 20 15 14 19 23 26 27 22 3 4 3 2 1 2 4 4 3 2 1 0 3 3 3 1 1 1 3 2 4 1 2 3 4 3 3 5 4 4 3 7 6 4 5 9 11 13 13 8 13 18 18
18 19 20 19 12 16 21 25 25 21 5 2 3 4 4 4 5 5 3 1 2 4 6 6 4 3 2 2 3 3 3 2 2 1 4 3 4 4 3 0 5 5 6 8 7 8 7 8 8 13 17 17 18 15
19 22 22 12 15 22 26 26 26 9 3 3 3 5 6 5 3 3 2 2 3 6 4 4 1 2 2 2 2 2 1 3 5 4 3 4 6 6 5 2 3 6 6 6 7 6 8 12 10 10 17 17 18 17
20 17 5 11 23 25 25 28 9 5 3 3 5 4 3 2 3 2 2 3 3 3 4 1 1 1 5 2 3 6 5 5 4 4 4 4 6 6 8 6 2 1 5 6 9 12 13 13 13 13 17 18 17 17
14 4 18 21 23 25 24 5 3 4 4 4 4 4 6 4 5 3 2 4 2 3 2 2 1 4 2 3 3 4 5 4 4 3 3 6 7 7 6 6 4 6 6 11 11 15 15 14 17 16 8 15 18 18
9 18 21 21 21 21 6 3 3 3 6 5 3 3 2 3 4 4 4 3 2 2 2 3 4 3 4 3 3 2 4 4 3 4 4 5 6 6 5 6 7 12 11 13 13 14 18 18 12 9 16 16 16 15
18 20 21 17 11 7 3 3 4 3 5 3 4 3 3 4 4 5 4 5 5 5 2 2 5 3 3 4 3 3 4 4 4 4 4 6 10 8 11 13 12 13 14 12 11 15 19 23 22 20 17 14 14 11
19 20 13 3 7 2 4 4 4 4 3 3 2 4 3 3 4 4 3 3 3 2 3 4 5 4 4 4 4 4 4 5 2 2 2 3 9 15 10 7 9 17 16 13 16 17 15 13 20 20 16 15 16 12
15 2 11 10 4 11 3 3 4 3 4 3 3 3 3 4 7 5 4 1 1 3 3 4 3 4 6 6 10 7 5 3 7 6 5 4 4 10 10 13 12 14 11 10 7 11 17 14 22 21 18 16 16 15
8 9 5 4 4 4 4 8 3 5 3 4 7 4 3 3 3 3 2 1 3 1 3 3 5 5 8 8 7 13 19 20 18 8 5 7 5 4 4 11 9 5 10 14 15 16 16 23 26 25 23 20 18 17
7 3 4 3 3 2 6 2 3 3 3 4 4 4 4 2 3 2 2 2 2 1 5 5 12 14 9 19 18 11 13 13 6 6 7 9 12 18 15 17 18 12 5 11 20 22 22 27 30 27 25 23 20 17
7 2 2 2 4 4 3 3 2 3 4 3 3 6 5 3 2 1 2 2 3 6 7 11 9 9 9 9 5 7 12 12 9 8 11 9 4 6 18 18 21 21 22 25 24 22 26 25 30 29 27 24 23 21
3 3 2 5 3 3 3 3 2 0 4 4 5 6 3 3 2 3 2 2 4 4 5 8 8 7 6 7 7 7 15 16 7 5 11 17 8 11 10 17 20 23 22 21 19 23 22 25 26 26 25 24 23 22
2 3 5 3 3 2 3 4 2 3 6 5 3 3 3 3 1 2 1 4 3 3 5 7 9 8 8 8 8 9 16 19 19 7 12 20 21 13 9 8 5 7 26 28 27 26 26 26 26 25 24 26 26 24
3 4 4 3 3 3 4 3 2 2 3 3 2 4 3 4 6 4 2 7 5 11 18 15 17 12 7 11 21 26 27 24 19 12 8 14 14 21 27 17 10 21 27 31 30 31 30 28 27 26 25 25 26 24
4 3 5 3 3 3 4 2 3 3 2 2 1 2 4 3 4 4 3 18 20 21 18 20 22 22 20 17 21 25 27 27 5 16 19 20 15 8 5 9 19 25 31 31 31 26 31 32 31 30 29 27 25 22
4 3 3 9 5 3 3 3 3 3 2 1 2 1 2 3 7 5 9 17 18 18 18 18 21 24 24 23 22 26 27 29 19 13 13 8 6 14 10 8 19 24 27 27 31 34 35 36 35 33 30 27 24 21
4 3 3 3 3 3 3 4 4 4 2 2 1 3 3 2 8 16 17 18 17 16 16 16 18 20 18 19 17 22 27 32 28 17 6 7 7 18 12 7 13 19 23 27 27 28 31 33 30 28 27 26 25 22
2 1 3 3 3 3 5 5 6 4 2 1 2 1 4 4 3 22 26 23 20 18 18 17 18 23 21 20 20 13 13 27 30 26 25 23 21 19 15 9 11 19 28 28 27 27 28 27 28 30 30 28 25 24
2 4 2 3 4 4 4 2 2 1 3 3 5 3 3 3 3 5 25 24 19 17 19 20 19 19 24 24 23 22 21 27 30 28 30 28 25 19 13 8 6 10 16 21 22 22 22 26 26 25 26 25 22 20
3 3 3 3 3 4 3 3 1 3 3 2 4 4 3 3 3 4 16 27 21 18 18 19 19 20 22 23 26 28 29 32 32 29 27 24 21 23 23 20 17 17 18 21 22 22 24 26 24 22 21 19 18 17
Wind_Direction
315 317 316 317 316 318 321 322 326 327 325 326 327 323 317 313 313 307 271 266 228 240 276 239 247 221 257 253 271 313 341 348 354 5 354 328 294 317 304 271 321 334 250 186 206 236 243 12 308 210 330 304 282 355
314 313 314 312 316 320 323 322 322 322 324 322 327 326 321 313 308 311 266 263 237 232 264 283 272 256 244 254 259 253 275 282 287 341 351 300 290 296 299 315 320 2 311 291 298 288 307 283 264 278 276 228 9 349
310 309 311 314 317 320 319 319 319 318 319 317 316 321 320 317 309 297 288 284 245 269 277 275 246 274 249 238 222 219 255 228 224 128 293 292 284 305 316 328 304 297 304 17 254 319 302 317 7 49 37 21 354 359
306 308 312 315 315 315 318 318 319 319 317 317 316 311 312 311 306 298 283 271 201 271 278 278 310 273 294 255 218 211 184 96 104 114 260 271 272 213 287 288 286 275 309 327 300 305 330 340 2 21 46 30 19 31
308 310 311 315 317 319 321 318 317 318 318 317 315 312 309 307 307 300 287 265 231 200 292 294 303 292 315 230 205 201 174 130 158 189 223 244 266 278 320 280 314 344 319 352 300 284 271 347 18 31 46 55 35 28
312 315 316 322 324 324 323 321 319 317 314 313 310 309 306 304 307 316 299 7 204 197 267 294 289 295 327 174 157 160 159 129 191 243 236 263 257 196 54 302 280 301 317 283 283 334 26 65 50 31 29 53 46 34
315 319 321 324 325 326 324 323 322 320 317 315 316 315 307 299 274 224 219 61 158 174 246 288 306 276 177 119 137 133 195 226 216 256 249 251 293 112 130 264 287 318 326 349 3 15 17 25 40 63 61 55 66 46
318 322 326 327 327 327 326 324 323 320 324 327 321 315 303 278 251 255 273 234 216 225 247 279 276 325 188 163 213 162 188 202 209 265 295 242 317 72 289 269 302 309 328 6 31 47 51 349 23 27 37 46 59 52
323 327 327 328 329 328 326 325 327 331 336 331 326 325 83 110 176 290 311 212 200 225 263 216 219 264 334 257 160 221 168 204 253 243 246 119 309 245 227 228 289 304 354 327 57 36 27 40 27 18 44 51 57 46
326 326 327 328 329 329 330 337 342 340 337 340 353 337 85 38 324 291 281 164 198 219 233 247 176 263 40 354 299 107 228 220 212 251 323 94 251 256 240 216 249 301 2 334 28 25 26 30 20 11 29 46 61 56
325 325 327 330 331 333 343 343 341 342 350 6 2 344 307 329 325 233 226 193 191 239 225 239 195 215 258 190 226 178 196 194 47 266 156 308 291 239 249 223 251 275 279 77 100 77 54 74 59 37 57 58 57 50
321 324 326 329 330 332 336 333 336 343 327 300 290 298 285 308 267 244 227 169 203 232 220 203 217 203 262 155 114 296 167 41 239 313 86 273 261 221 187 233 42 112 140 123 126 102 24 10 57 74 67 64 64 56
321 323 325 325 322 323 326 331 334 336 330 306 199 229 222 242 246 218 222 263 260 225 107 275 258 232 281 100 83 84 116 230 7 50 232 233 264 194 194 163 146 185 144 141 128 91 77 63 63 58 51 60 76 67
319 320 321 324 323 323 326 325 330 333 305 279 260 249 196 203 241 208 204 203 328 262 293 266 241 165 238 145 151 157 229 82 26 340 237 245 227 194 127 244 148 116 123 158 136 124 114 97 81 78 79 80 78 68
318 317 314 309 334 327 324 324 322 297 248 256 258 244 230 226 255 250 267 297 268 276 329 320 28 79 273 173 204 116 117 265 205 229 228 220 187 162 129 169 191 152 137 137 141 142 138 123 105 83 88 84 81 76
322 329 42 296 316 324 326 325 319 179 238 232 235 261 260 298 283 345 308 264 260 314 299 95 60 181 243 191 156 205 143 226 244 217 223 176 184 211 173 148 211 206 157 133 152 156 144 135 127 117 105 102 95 85
325 261 322 331 331 329 328 294 228 224 222 238 250 230 254 271 261 244 208 261 277 355 282 112 180 212 272 253 243 184 197 218 223 222 215 188 190 199 193 143 193 204 194 142 156 169 150 148 138 122 104 102 103 96
290 313 323 329 332 328 305 255 259 256 240 239 235 249 210 234 262 278 245 247 154 217 288 240 174 213 222 243 265 250 266 263 223 224 200 208 205 206 186 195 186 186 192 171 159 159 157 151 144 147 132 126 111 100
305 310 315 320 329 307 289 270 224 259 247 257 259 253 229 247 250 254 256 264 224 212 242 213 230 201 213 227 251 292 263 238 223 228 223 204 191 183 187 180 166 171 179 169 165 160 173 173 167 160 143 134 115 109
311 311 322 321 352 276 280 271 261 270 261 254 279 278 256 246 263 272 278 263 229 204 237 224 213 218 211 237 213 215 246 252 228 195 242 235 198 193 200 169 181 178 177 167 174 169 151 138 158 157 147 136 120 108
316 341 319 299 245 213 249 281 271 244 283 288 306 333 273 305 292 273 278 223 236 221 226 229 269 294 282 261 254 220 249 237 225 199 199 200 218 189 180 203 193 172 160 157 163 171 159 160 162 161 146 132 123 114
270 304 284 277 239 243 238 235 230 289 294 263 292 280 270 277 267 277 280 250 229 346 21 332 310 314 311 292 267 234 237 240 234 223 217 151 133 169 197 198 164 168 165 170 172 167 162 161 161 159 150 142 136 130
297 280 243 258 261 264 260 236 233 255 283 281 314 275 262 276 237 159 248 240 56 344 337 316 317 307 290 292 298 296 262 222 216 217 193 200 192 191 182 176 181 159 148 180 174 163 155 163 160 154 152 149 144 138
293 255 271 264 226 265 301 275 239 345 339 327 319 301 298 256 277 235 252 46 353 349 348 341 333 332 330 331 339 340 348 321 247 251 217 181 165 181 178 173 181 186 191 185 169 155 153 154 156 152 157 155 154 151
280 262 233 265 265 270 265 264 74 63 263 272 292 274 274 302 279 34 45 353 331 342 339 344 340 329 321 325 310 311 343 338 318 267 232 208 163 130 148 165 181 188 178 153 156 153 152 153 155 158 161 161 159 157
266 245 184 234 266 250 298 308 233 242 308 297 270 273 314 292 203 104 351 348 307 327 346 1 343 340 344 344 340 336 335 326 313 262 248 196 184 171 166 159 149 180 183 171 164 158 157 161 161 163 164 170 169 160
272 280 230 235 283 319 279 273 262 213 265 276 327 336 324 308 35 19 18 9 343 340 349 347 348 339 346 359 352 348 343 332 302 259 213 171 175 176 165 170 181 193 185 177 168 164 162 162 163 163 162 170 174 173
237 267 245 214 253 218 253 241 255 232 244 219 327 304 303 348 26 340 359 334 338 346 353 356 353 350 350 358 7 358 349 355 45 118 109 79 79 102 135 171 180 187 183 169 165 179 172 167 163 162 164 167 170 174
246 255 257 270 254 233 226 220 249 248 242 141 137 188 353 63 354 339 337 347 349 359 0 357 2 3 2 5 15 9 6 19 21 30 63 54 32 16 40 166 174 176 170 169 173 178 179 171 169 167 168 166 165 164
257 196 258 263 248 241 233 205 234 234 235 188 241 111 104 108 16 15 10 6 6 3 359 2 7 11 9 2 358 5 15 20 17 357 7 36 19 19 41 118 166 178 176 168 155 148 154 155 155 153 150 151 155 156
239 241 251 239 266 244 239 246 258 254 232 206 122 164 124 148 123 23 12 3 358 12 18 17 16 17 17 17 8 2 5 6 17 24 32 33 34 34 46 80 134 145 147 146 147 153 148 142 146 149 153 155 157 158
231 232 268 284 282 293 307 224 266 53 43 41 14 38 79 67 59 21 6 4 7 15 17 21 22 18 25 33 28 28 26 27 31 34 38 45 49 47 68 91 110 127 132 143 145 148 147 141 143 145 148 150 151 152
263 220 212 289 298 311 301 320 282 97 60 70 33 22 51 71 81 8 11 23 15 11 10 17 29 38 44 45 42 40 38 40 41 43 44 48 52 57 64 70 95 116 117 109 110 122 124 128 127 133 136 139 139 141